This is the latest recevied weather packets stored in our database for station/object YM7KGL-1. If no packets are shown the sender has not sent any weather packets the latest 10 day(s).
| Time | Temp. | Humidity | Pressure | Rain* | Wind** | Luminosity | Snow |
|---|---|---|---|---|---|---|---|
| 1777552174 | 21.67° C | 46% | 1016.6 hPa | - | - | - | - |
| 1777551274 | 21.67° C | 47% | 1016.7 hPa | - | - | - | - |
| 1777550998 | 21.67° C | 46% | 1016.8 hPa | - | - | - | - |
| 1777550098 | 22.22° C | 46% | 1016.9 hPa | - | - | - | - |
| 1777549198 | 22.22° C | 46% | 1017.2 hPa | - | - | - | - |
| 1777548298 | 22.78° C | 46% | 1017.4 hPa | - | - | - | - |
| 1777548174 | 23.33° C | 46% | 1017.5 hPa | - | - | - | - |
| 1777547397 | 23.33° C | 46% | 1017.5 hPa | - | - | - | - |
| 1777547036 | 23.33° C | 46% | 1017.7 hPa | - | - | - | - |
| 1777546219 | 23.33° C | 46% | 1017.9 hPa | - | - | - | - |
| 1777546136 | 23.33° C | 46% | 1017.8 hPa | - | - | - | - |
| 1777545235 | 23.89° C | 46% | 1017.9 hPa | - | - | - | - |
| 1777544335 | 23.33° C | 46% | 1017.9 hPa | - | - | - | - |
| 1777543434 | 23.33° C | 46% | 1017.9 hPa | - | - | - | - |
| 1777543371 | 23.33° C | 46% | 1017.8 hPa | - | - | - | - |
| 1777542471 | 22.78° C | 46% | 1017.8 hPa | - | - | - | - |
| 1777541571 | 22.78° C | 46% | 1017.7 hPa | - | - | - | - |
| 1777540671 | 22.78° C | 47% | 1017.7 hPa | - | - | - | - |
| 1777539770 | 21.67° C | 47% | 1017.7 hPa | - | - | - | - |
| 1777539751 | 21.67° C | 47% | 1017.8 hPa | - | - | - | - |
| 1777538851 | 21.11° C | 47% | 1017.7 hPa | - | - | - | - |
| 1777537951 | 20.56° C | 47% | 1017.8 hPa | - | - | - | - |
| 1777537051 | 21.11° C | 47% | 1017.9 hPa | - | - | - | - |
| 1777536151 | 21.11° C | 47% | 1018 hPa | - | - | - | - |
| 1777535144 | 21.11° C | 48% | 1018 hPa | - | - | - | - |
* Rain since midnight (hover to see other rain measurements)
** Current wind speed in m/s (hover to see current wind gust speed)